Regional Weather Roundup
Issued by NWS

Home | Current Version | Previous Version | Graphics & Text | Print | Product List | Glossary On
Versions: 1 2 3 4 5 6 7 8 9 10 11 12 13 14 15 16 17 18 19 20 21 22 23 24 25 26 27 28 29 30 31 32 33 34 35 36 37 38 39 40 41 42 43 44 45 46 47 48 49 50
634
ASUS43 KDMX 190401
RWRIA

WEATHER ROUNDUP FOR IOWA
NATIONAL WEATHER SERVICE DES MOINES IA
1100 PM CDT WED APR 18 2018

NOTE: "FAIR" INDICATES FEW OR NO CLOUDS BELOW 12,000 FEET WITH NO
SIGNIFICANT WEATHER AND/OR OBSTRUCTIONS TO VISIBILITY.

* - THESE STATIONS ARE NOT NWS STATIONS...THUS NOT UNDER NWS
QUALITY CONTROL.  THEY ALSO DO NOT REPORT WEATHER SUCH
AS PRECIPITATION OR FOG.

IAZ001>003-012>014-020>022-031>034-043>046-190500-
   NORTHWEST IOWA

CITY           SKY/WX    TMP DP  RH WIND       PRES   REMARKS
CARROLL *      CLOUDY    32  30  93 N10       30.20R WCI  24
CHEROKEE *     CLOUDY    32  32  99 NW3       30.23R
DENISON *      CLOUDY    32  30  93 NW6       30.23R WCI  26
LE MARS *      CLOUDY    34  32  93 NW3       30.25R
ORANGE CITY *  CLOUDY    34  34 100 NW6       30.23R WCI  29
SHELDON *      CLOUDY    32  32 100 NW5       30.21R WCI  27
SIOUX CITY     CLOUDY    34  30  85 N9        30.25R WCI  27
SPENCER        CLOUDY    33  30  88 NW7       30.20S WCI  27
STORM LAKE *   CLOUDY    32  30  93 NW13      30.20R WCI  22
$$

IAZ055>058-069>071-079>083-090>094-190500-
   SOUTHWEST IOWA

CITY           SKY/WX    TMP DP  RH WIND       PRES   REMARKS
ATLANTIC *     CLOUDY    32  32 100 NW8       30.21R WCI  25
AUDUBON *      CLEAR     32  28  86 N7        30.20R WCI  26
CLARINDA *     MIX PCPN  37  34  87 N21       30.23R WCI  27
COUNCIL BLFS * CLOUDY    37  37 100 N9        30.21R WCI  31
CRESTON *      CLOUDY    34  30  86 NW13G18   30.18S WCI  25
HARLAN  *      PTCLDY    32  32 100 NW9       30.24R WCI  24
LAMONI         CLOUDY    35  28  75 NW16      30.16R WCI  25
RED OAK *      CLOUDY    36  34  93 N10G17    30.21R WCI  28
SHENANDOAH *   CLOUDY    39  32  75 NW10G16   30.22R WCI  32
$$

IAZ047>049-059>061-072>074-084-190500-
   CENTRAL IOWA

CITY           SKY/WX    TMP DP  RH WIND       PRES   REMARKS
AMES           CLOUDY    33  28  81 NW14      30.17R WCI  23
ANKENY *       CLOUDY    32  28  86 NW12      30.19R WCI  23
BOONE *        CLOUDY    32  30  93 NW13      30.16R WCI  22
CHARITON *     PTCLDY    32  28  86 NW13      30.15S WCI  22
DES MOINES     PTCLDY    32  27  81 NW9       30.18R WCI  24
GRINNELL*      CLOUDY    31  29  94 NW9       30.14R WCI  23
KNOXVILLE *    PTCLDY    32  27  80 NW13      30.14S WCI  22
MARSHALLTOWN   CLOUDY    30  28  92 NW12      30.14R WCI  20
NEWTON *       CLOUDY    30  30 100 NW12      30.16R WCI  21
PELLA *        CLEAR     31  28  90 NW10      30.16S WCI  22
$$

IAZ004>006-015-016-023>025-035-036-190500-
   NORTH CENTRAL IOWA

CITY           SKY/WX    TMP DP  RH WIND       PRES   REMARKS
ALGONA *       CLOUDY    32  30  93 NW9G16    30.18R WCI  24
CLARION *      CLOUDY    32  28  86 NW14      30.17R WCI  22
ESTHERVILLE    CLOUDY    30  27  88 NW13      30.18R WCI  20
FORT DODGE *   CLOUDY    31  29  92 NW5       30.19R WCI  26
MASON CITY     CLOUDY    31  29  92 NW15      30.16R WCI  20
FOREST CITY *  CLOUDY    32  32 100 NW8       30.16R WCI  25
WEBSTER CITY * CLOUDY    32  30  93 NW12      30.16R WCI  23
IOWA FALLS *   CLOUDY    32  31  95 NW12      30.16R WCI  23
$$

IAZ007>011-017>019-026>030-037>042-050>054-066-190500-
   NORTHEAST IOWA

CITY           SKY/WX    TMP DP  RH WIND       PRES   REMARKS
CEDAR RAPIDS   CLOUDY    32  31  96 NW10      30.09R WCI  24
CHARLES CITY * CLOUDY    32  32 100 NW10      30.12R WCI  24
CLINTON *      FLURRIES  31  30  96 NW12      30.06R WCI  22
DECORAH *      CLOUDY    32  32 100 NW6       30.07R WCI  26
DUBUQUE        LGT SNOW  30  28  92 NW15      30.05S FOG     WCI  19
MONTICELLO *   CLOUDY    30  30 100 NW9       30.08R WCI  22
OELWEIN *      CLOUDY    30  30 100 NW13      30.10R WCI  20
WATERLOO       CLOUDY    30  29  96 W7        30.12R WCI  23
$$

IAZ064-065-067-068-078-190500-
   EAST CENTRAL IOWA

CITY           SKY/WX    TMP DP  RH WIND       PRES   REMARKS
DAVENPORT      FLURRIES  31  29  92 NW13      30.08R WCI  21
IOWA CITY      CLOUDY    33  29  85 NW12      30.12R WCI  24
MT. PLEASANT * CLOUDY    32  28  86 NW10G17   30.12R WCI  24
MUSCATINE *    CLOUDY    34  28  80 NW14      30.11R WCI  24
QUAD CITIES    CLOUDY    33  30  88 NW13G22   30.06R WCI  24
$$

IAZ062-063-075>077-085>089-095>099-190500-
   SOUTHEAST IOWA

CITY           SKY/WX    TMP DP  RH WIND       PRES   REMARKS
BURLINGTON     CLOUDY    33  28  81 NW10      30.09R WCI  25
FAIRFIELD *    CLOUDY    32  28  86 NW10      30.12R WCI  24
FORT MADISON * CLOUDY    34  30  86 W12       30.11R WCI  25
KEOKUK *       CLOUDY    34  28  80 NW9G20    30.11R WCI  26
OSKALOOSA *    FAIR      30  28  92 NW10      30.14R WCI  21
CENTERVILLE *    N/A     32  32 100 W13       30.15S WCI  22
OTTUMWA        CLOUDY    31  27  85 NW14      30.13S WCI  21
WASHINGTON *   CLOUDY    32  32 100 NW15      30.12R WCI  22
$$

ABBREVIATIONS USED IN REMARKS
   TC - TEMPERATURES IN CELSIUS
  WCI - WIND CHILL INDEX
   HX - HEAT INDEX
  VSB - VISIBILITY
$$





USA.gov is the U.S. government's official web portal to all federal, state and local government web resources and services.